SCP
0 0 0 0 0 0 0 0 0 0 0 0 0 0 0 0 0 0 0 0 0 0 0 0 0 0 0 0 0 0 0 0 0 0 0 0 0 0 0 0 0 0 0
0 0 0 0 0 0 0 0 0 0 0 0 0 0 0 0 0 0 0 0 0 0 0 0 0 0 0 0 0 0 0 0 0 0 0 0 0 0 0 0 0 0 0
0 0 0 0 0 0 0 0 0 0 0 0 0 0 0 0 0 0 0 0 0 0 0 0 0 0 0 0 0 0 0 0 0 0 0 0 0 0 0 0 0 0 0
0 0 0 0 0 0 0 0 0 0 0 0 0 0 0 0 0 0 0 0 0 0 0 0 0 0 0 0 0 0 0 0 0 0 0 0 0 0 0 0 0 0 0
0 0 0 0 0 0 0 0 0 0 0 0 0 0 0 0 0 0 0 0 0 0 0 0 0 0 0 0 0 0 0 0 0 0 0 0 0 0 0 0 0 0 0
0 0 0 0 0 0 0 0 0 0 0 0 0 0 0 0 0 0 0 0 0 0 0 0 0 0 0 0 0 0 0 0 0 0 0 0 0 0 0 0 0 0 0
0 0 0 0 0 0 0 0 0 0 0 0 0 0 0 0 0 0 0 0 0 0 0 0 0 0 0 0 0 0 0 0 0 0 0 0 0 0 0 0 0 0 0
0 0 0 0 0 0 0 0 0 0 0 0 0 0 0 0 0 0 0 0 0 0 0 0 0 0 0 0 0 0 0 0 0 0 0 0 0 0 0 0 0 0 0
0 0 0 0 0 0 0 0 0 0 0 0 0 0 0 0 0 0 0 0 0 0 0 0 0 0 0 0 0 0 0 0 0 0 0 0 0 0 0 0 0 0 0
0 0 0 0 0 0 0 0 0 0 0 0 0 0 0 0 0 0 0 0 0 0 0 0 0 0 0 0 0 0 0 0 0 0 0 0 0 0 0 0 0 0 0
0 0 0 0 0 0 0 0 0 0 0 0 0 0 0 0 0 0 0 0 0 0 0 0 0 0 0 0 0 0 0 0 0 0 0 0 0 0 0 0 0 0 0
0 0 0 0 0 0 0 0 0 0 0 0 0 0 0 0 0 0 0 0 0 0 0 0 0 0 0 0 0 0 0 0 0 0 0 0 0 0 0 0 0 0 0
0 0 0 0 0 0 0 0 0 0 0 0 0 0 0 0 0 0 0 0 0 0 0 0 0 0 0 0 0 0 0 0 0 0 0 0 0 0 0 0 0 0 0
0 0 0 0 0 0 0 0 0 0 0 0 0 0 0 0 0 0 0 0 0 0 0 0 0 0 0 0 0 0 0 0 0 0 0 0 0 0 0 0 0 0 0
0 0 0 0 0 0 0 0 0 0 0 0 0 0 0 0 0 0 0 0 0 0 0 0 0 0 0 0 0 0 0 0 0 0 0 0 0 0 0 0 0 0 0
0 0 0 0 0 0 0 0 0 0 0 0 0 0 0 0 0 0 0 0 0 0 0 0 0 0 0 0 0 0 0 0 0 0 0 0 0 0 0 0 0 0 0
0 0 0 0 0 0 0 0 0 0 0 0 0 0 0 0 0 0 0 0 0 0 0 0 0 0 0 0 0 0 0 0 0 0 0 0 0 0 0 0 0 0 0
0 0 0 0 0 0 0 0 0 0 0 0 0 0 0 0 0 0 0 0 0 0 0 0 0 0 0 0 0 0 0 0 0 0 0 0 0 0 0 0 0 0 0
0 0 0 0 0 0 0 0 0 0 0 0 0 0 0 0 0 0 0 0 0 0 0 0 0 0 0 0 0 0 0 0 0 0 0 0 0 0 0 0 0 0 0
0 0 0 0 0 0 0 0 0 0 0 0 0 0 0 0 0 0 0 0 0 0 0 0 0 0 0 0 0 0 0 0 0 0 0 0 0 0 0 0 0 0 0
0 0 0 0 0 0 0 0 0 0 0 0 0 0 0 0 0 0 0 0 0 0 0 0 0 0 0 0 0 0 0 0 0 0 0 0 0 0 0 0 0 0 0
0 0 0 0 0 0 0 0 0 0 0 0 0 0 0 0 0 0 0 0 0 0 0 0 0 0 0 0 0 0 0 0 0 0 0 0 0 0 0 0 0 0 0
0 0 0 0 0 0 0 0 0 0 0 0 0 0 0 0 0 0 0 0 0 0 0 0 0 0 0 0 0 0 0 0 0 0 0 0 0 0 0 0 0 0 0
0 0 0 0 0 0 0 0 0 0 0 0 0 0 0 0 0 0 0 0 0 0 0 0 0 0 0 0 0 0 0 0 0 0 0 0 0 0 0 0 0 0 0
0 0 0 0 0 0 0 0 0 0 0 0 0 0 0 0 0 0 0 0 0 0 0 0 0 0 0 0 0 0 0 0 0 0 0 0 0 0 0 0 0 0 0
0 0 0 0 0 0 0 0 0 0 0 0 0 0 0 0 0 0 0 0 0 0 0 0 0 0 0 0 0 0 0 0 0 0 0 0 0 0 0 0 0 0 0
Wind_Speed
9 10 9 10 10 11 11 12 13 13 13 13 14 15 16 16 17 17 17 17 18 18 19 19 19 20 20 20 20 20 20 20 20 20 20 20 20 20 20 18 17 13 20
13 12 10 10 11 12 11 11 12 12 12 13 14 15 15 16 16 16 16 17 17 18 18 18 19 19 19 18 18 18 17 16 16 16 18 17 19 20 20 19 18 13 19
14 12 10 10 11 11 11 11 12 12 12 13 14 14 15 15 15 16 16 16 16 17 17 18 18 18 17 17 16 16 15 13 12 13 14 9 12 18 19 18 18 18 18
13 11 11 11 11 11 11 11 12 13 13 13 14 14 15 15 15 15 15 15 15 16 17 17 17 16 16 16 15 14 13 13 12 13 9 9 9 16 17 17 17 17 16
12 11 11 11 11 12 11 11 12 13 13 13 13 14 14 14 14 14 14 14 15 15 16 16 16 15 15 14 13 13 12 11 12 12 8 8 7 14 16 16 16 15 15
12 12 10 11 11 11 11 11 12 12 13 12 13 14 14 14 14 13 13 14 14 14 15 15 15 14 14 13 12 11 12 11 10 8 8 7 6 12 14 14 14 13 13
12 11 10 10 10 10 11 11 12 12 12 13 13 13 13 13 13 12 12 13 14 14 14 14 14 13 13 12 11 11 12 10 8 7 7 6 7 12 12 12 12 12 12
12 11 10 10 10 9 10 10 11 12 12 12 12 12 12 12 12 12 12 12 13 13 13 13 13 12 11 10 9 9 10 10 7 8 7 5 8 10 11 11 10 10 10
12 11 8 8 9 9 10 10 11 11 11 12 12 12 11 11 11 11 10 11 12 12 12 12 11 11 10 9 8 8 9 10 5 5 7 4 7 9 9 9 9 8 8
9 9 9 8 8 7 7 10 11 11 11 11 11 11 11 10 9 9 9 10 11 11 11 11 10 9 8 7 5 6 8 8 4 5 4 4 6 7 7 7 6 6 6
8 7 8 8 8 8 7 9 9 10 10 10 8 9 8 5 5 6 9 9 10 10 9 9 8 8 6 4 2 4 7 2 4 4 4 4 4 4 4 4 4 4 4
8 7 7 8 8 8 8 7 5 6 6 5 5 5 3 4 5 7 8 8 8 8 8 7 6 4 3 2 1 3 2 3 2 2 3 4 2 1 2 1 1 1 1
8 7 7 7 7 7 5 5 3 3 4 4 6 4 3 4 4 4 3 4 4 5 4 4 3 2 0 1 1 1 1 2 1 1 4 4 2 2 3 3 3 3 3
9 8 6 6 6 7 6 4 4 3 3 3 4 5 3 3 3 3 3 4 3 2 3 2 1 0 1 1 2 2 2 2 2 1 3 5 4 6 6 7 7 7 7
10 10 8 6 7 6 5 4 4 4 4 4 4 4 4 3 3 3 2 2 3 2 3 2 2 2 1 2 2 2 3 3 3 2 2 7 8 9 10 11 11 11 11
10 11 9 8 7 6 4 4 3 4 4 4 4 5 5 3 3 3 3 3 2 2 2 2 2 2 2 2 3 3 4 4 4 4 3 5 10 11 13 14 14 14 14
9 10 10 9 8 7 6 5 3 3 4 3 4 5 5 4 4 4 3 3 3 2 2 1 1 1 2 2 3 4 4 4 4 5 5 4 5 11 15 17 17 17 18
10 9 10 8 9 8 7 6 3 3 4 3 4 4 5 5 4 3 3 3 3 3 2 2 2 2 3 3 3 4 3 4 6 6 5 5 5 5 9 17 19 20 20
10 10 10 10 10 9 7 5 5 3 4 3 3 3 4 5 4 3 3 3 4 3 3 3 3 2 3 4 4 4 4 5 6 6 7 8 7 7 6 9 14 17 21
9 10 11 11 10 9 7 5 4 4 3 3 3 4 5 5 5 4 3 4 4 3 3 3 4 3 3 3 3 5 5 6 6 7 9 8 7 8 8 8 7 9 17
8 9 11 12 11 9 7 7 6 6 5 4 4 5 6 5 6 5 4 4 4 4 5 5 3 4 3 2 2 4 5 8 9 9 8 6 7 8 7 8 7 6 7
8 8 9 10 12 11 8 7 5 5 5 5 5 6 6 6 6 5 6 4 5 4 5 5 4 3 3 3 3 2 5 5 5 7 6 6 7 6 6 8 7 8 7
7 8 7 9 10 12 10 6 4 4 3 4 5 5 7 7 7 6 6 5 5 5 5 6 6 6 4 3 4 4 3 4 4 3 4 5 6 5 6 6 8 9 9
6 5 6 7 8 9 11 9 8 6 6 6 4 4 5 7 6 6 6 6 5 5 5 5 6 5 5 4 3 5 6 3 4 6 4 3 5 6 7 6 7 8 8
2 3 3 4 5 7 9 10 8 7 5 3 3 4 4 4 5 5 5 5 5 4 5 5 5 6 5 5 4 3 5 5 5 7 9 6 4 5 6 7 7 6 7
2 1 2 3 3 4 6 8 8 7 6 4 3 3 2 2 2 2 3 3 4 4 4 5 5 6 6 7 6 4 4 4 4 6 9 10 9 6 5 5 6 7 7
Wind_Direction
116 118 123 117 111 106 103 101 98 94 91 89 87 85 82 79 77 75 75 75 75 75 74 74 74 73 72 72 72 72 72 73 73 71 69 68 67 66 65 65 64 59 63
117 119 122 116 110 106 105 103 102 99 96 94 91 88 86 84 82 80 78 78 78 78 78 77 76 75 74 74 73 73 73 73 77 77 71 66 67 67 67 66 67 66 65
115 120 118 112 110 105 104 104 106 105 101 98 95 90 88 87 86 84 82 81 81 81 81 80 78 77 76 75 73 71 67 64 67 74 71 64 64 67 66 65 65 66 66
120 126 117 113 110 107 105 105 106 105 100 100 99 94 90 88 87 86 85 85 84 84 83 82 80 79 77 75 71 67 60 51 57 69 65 58 58 66 66 65 64 64 65
115 110 114 114 112 110 107 105 106 105 101 100 100 96 92 89 86 85 85 85 84 84 84 83 81 80 78 74 69 62 50 40 61 68 70 63 57 67 67 66 65 64 63
111 112 116 116 116 114 111 109 108 108 104 101 100 97 92 90 87 85 86 87 86 85 86 84 83 81 78 73 65 54 39 38 64 63 62 61 57 70 70 70 69 67 66
115 116 119 113 114 113 113 112 110 107 106 103 101 97 94 90 89 87 88 92 89 88 87 86 85 82 77 71 62 45 27 28 76 72 67 57 60 69 69 69 69 68 67
116 117 117 107 107 106 109 109 109 108 107 105 102 99 97 92 89 87 87 93 93 91 89 89 87 83 77 71 57 33 16 19 72 84 78 62 66 70 71 70 69 68 68
119 122 128 127 114 102 101 103 103 105 105 104 102 97 91 88 87 83 83 91 94 94 93 91 89 85 80 71 53 24 6 1 49 74 84 69 68 70 72 72 71 70 71
126 133 140 143 136 129 111 103 104 105 105 103 104 103 100 97 93 89 83 88 91 94 94 93 92 88 84 75 48 7 346 336 49 79 86 81 72 73 73 73 72 72 73
138 144 147 148 146 143 134 123 115 113 115 116 114 129 141 136 120 95 87 89 91 95 99 99 98 99 99 90 38 335 329 351 46 71 84 96 85 80 80 79 79 77 78
153 155 149 148 147 145 138 145 147 142 151 156 151 177 185 107 102 105 96 96 98 100 104 106 115 137 158 160 213 287 310 351 26 93 118 127 115 108 111 115 120 124 129
160 157 155 151 148 140 138 159 159 151 168 165 160 171 124 110 123 125 124 123 125 136 130 139 172 226 213 108 208 257 344 350 349 88 144 159 187 237 233 225 231 234 235
167 167 167 158 153 150 153 158 150 145 157 156 152 157 144 144 151 148 153 162 163 171 150 175 189 158 351 336 327 329 326 305 321 41 159 185 211 243 252 247 245 244 243
173 170 176 170 164 161 157 155 157 156 160 158 152 166 159 151 162 151 150 151 168 157 161 191 197 175 228 252 263 277 287 289 291 280 193 206 219 236 250 255 253 250 247
175 170 172 177 174 166 160 160 163 160 160 157 157 172 178 170 167 157 161 165 180 171 172 177 197 190 229 240 252 254 260 268 265 262 247 224 226 235 245 253 256 256 254
175 170 171 178 178 173 172 174 171 164 157 163 165 175 178 184 174 165 171 172 187 177 158 166 240 243 258 252 255 256 254 258 261 262 257 245 233 234 241 250 255 258 259
172 175 172 172 179 180 178 179 180 179 167 171 169 175 178 188 184 171 178 180 179 164 168 195 217 228 248 251 255 260 252 251 251 252 253 250 246 242 240 245 251 256 259
174 174 172 171 180 183 181 181 182 185 178 173 171 175 181 185 190 184 188 189 176 170 187 204 216 215 242 250 251 259 258 252 249 248 246 246 243 242 242 249 249 252 256
175 172 172 174 181 181 179 180 184 189 188 185 186 189 187 187 191 194 195 198 180 175 196 207 222 225 240 260 280 272 259 252 247 244 246 247 243 243 242 244 249 251 253
175 175 173 175 180 181 181 184 187 191 190 194 197 198 200 195 191 196 197 199 188 194 207 207 209 229 242 227 277 288 271 249 242 243 240 240 244 245 244 243 244 247 255
181 185 182 178 180 183 187 187 187 184 191 195 194 201 204 202 197 196 204 203 199 205 215 212 201 206 229 187 197 279 304 303 264 243 234 234 242 245 247 247 245 244 245
188 192 193 187 181 181 178 174 170 180 184 190 196 200 205 206 205 198 203 206 207 205 217 217 207 208 230 220 193 210 256 276 310 291 245 238 240 244 247 247 246 245 244
191 190 195 192 183 176 172 176 175 183 194 197 192 196 198 203 206 201 201 208 214 211 219 223 214 211 216 233 217 221 235 264 291 299 288 267 256 253 252 252 250 247 244
148 176 192 189 185 175 171 175 183 193 199 191 186 190 196 197 200 198 197 205 216 219 224 228 222 217 216 229 225 216 232 245 239 266 287 284 268 251 252 252 252 251 248
115 140 166 174 178 166 163 166 179 188 187 187 190 184 186 177 177 186 196 212 222 227 231 233 231 229 229 234 238 229 221 232 235 244 275 288 287 273 257 253 254 254 252